Find Local Weather

World > North America > United States > North Carolina

Knotts Island, North Carolina Regional Weather

Lat: 36.51N, Lon: 75.92W
Wx Zone: NCZ017
Feedback

Knotts Island, NC Regional Weather

Expires:201905230900;;317824
ASUS41 KAKQ 230816
RWRAKQ

REGIONAL WEATHER ROUNDUP
NATIONAL WEATHER SERVICE WAKEFIELD VA
400 AM EDT THU MAY 23 2019

Note: "fair" indicates few or no clouds below 12,000 feet with no
significant weather and/or obstructions to visibility. * = Denotes
station may not report precipitation (e.g., rain,snow,etc.),
thunder or fog.


NCZ012>017-030>032-230900-
NORTH CENTRAL AND EASTERN NORTH CAROLINA
  
CITY           SKY/WX    TMP DP  RH WIND       PRES   REMARKS
ROANOKE RAPIDS FAIR      54  54 100 CALM      30.25S                  
RALEIGH        MOCLDY    66  57  72 S5        30.24F                  
ELIZABETH CITY FAIR      62  54  74 CALM      30.25S                  
AHOSKIE*       CLOUDY    56  56  97 CALM      30.25F                  
EDENTON*       FAIR      64  59  82 CALM      30.25F HAZE             
CURRITUCK*     FAIR      57  54  88 MISG      30.25R                  
KILL DEVIL HLS FAIR      64  54  72 MISG      30.23F                  
MANTEO         FAIR      64  55  73 SE7       30.25F                  
CAPE HATTERAS  FAIR      65  60  84 E6        30.24F                  
TARBORO*       FAIR      57  55  94 CALM      30.24S                  
GOLDSBORO      FAIR      61  55  81 CALM      30.22                   
WASHINGTON     FAIR      58  52  80 CALM      30.25S                  
GREENVILLE     FAIR      61  52  72 CALM      30.25S                  
NEW BERN       FAIR      61  57  87 CALM      30.25F                  
WILMINGTON     FAIR      65  62  90 CALM      30.23F                  
$$


SKY/WX - Weather  TMP - Temperature  DP - Dew Point  RH - Relative Humidity
WIND - Wind Direction/Speed PRES - Barometric Pressure VSB - Visibility
WCI - Wind Chill Index E13G22 Wind - East Wind 13 mph/Gusts of 22 mph